[[{"header":{"parameterUnit":"m.s-1","parameterCategory":1,"la1":30.2991,"la2":30.254,"lo1":-89.0895,"lo2":-89.0444,"dy":0.0017,"dx":0.0017,"nx":28,"ny":28,"refTime":"2025-11-29T09:00:00:Z","depth":0,"parameterNumber":2,"parameterNumberName":"U-component_of_WINDS"},"data":[0,0,0,0,0,0,0,0,0,0,0,0,0,0,0,0,0,0,0,0,0,0,0,0,0,0,0,0,0,0,0,0,0,0,0,0,0,0,0,0,0,0,0,0,0,0,0,0,0,0,0,0,0,0,0,0,0,0,-7.3264,-7.3265,0,-7.3298,-7.3298,-7.3299,-7.3083,-7.3077,-7.3071,-7.3065,-7.3099,-7.3106,-7.3112,0,0,0,0,0,0,0,0,0,0,0,0,0,-7.3013,-7.3019,-7.3264,-7.3265,-7.3265,-7.3298,-7.3298,-7.3299,-7.3084,-7.3077,-7.3069,-7.3062,-7.3097,-7.3105,-7.3113,0,0,0,0,0,0,0,0,0,0,0,0,0,-7.3092,-7.302,-7.3264,-7.3162,-7.3153,-7.3298,-7.3298,-7.3299,-7.3086,-7.3076,-7.3067,-7.3059,-7.3095,-7.3104,-7.3114,-7.3358,0,0,-7.3144,-7.3148,0,0,0,0,0,0,0,0,-7.3088,-7.3101,-7.3177,-7.3169,-7.316,-7.3177,-7.3222,-7.3319,-7.3088,-7.3111,-7.3065,-7.3054,-7.3133,-7.3139,-7.3165,-7.336,-7.3361,-7.3145,-7.3151,-7.3155,-7.3158,0,0,0,0,0,0,0,-7.3083,-7.3099,-7.3277,-7.3178,-7.3168,-7.3114,-7.3115,-7.3239,-7.3173,-7.3108,-7.3093,-7.31,-7.3126,-7.3156,-7.3164,-7.3362,-7.3145,-7.3154,-7.316,-7.3164,-7.3756,-7.3766,0,0,0,0,0,0,-7.3091,-7.3096,-7.3276,-7.3278,-7.31,-7.3126,-7.3127,-7.3181,-7.3171,-7.3161,-7.3108,-7.309,-7.3144,-7.3153,-7.3165,-7.3447,-7.3155,-7.3165,-7.317,-7.3747,-7.3759,-7.3769,0,0,0,0,0,0,-7.3086,-7.3109,-7.3275,-7.3183,-7.32,-7.314,-7.3202,-7.3186,-7.3215,-7.317,-7.3157,-7.3151,-7.3137,-7.3151,-7.3311,-7.3446,-7.3169,-7.3178,-7.3735,-7.375,-7.3764,-7.4017,0,0,0,0,0,0,-7.308,-7.3109,-7.3201,-7.3187,-7.3206,-7.3422,-7.321,-7.3193,-7.3233,-7.321,-7.3207,-7.3198,-7.3131,-7.3298,-7.3321,-7.3454,-7.3186,-7.3723,-7.3742,-7.3759,-7.3997,-7.4039,-7.4075,0,0,0,0,0,-7.3072,-7.3272,-7.3207,-7.323,-7.332,-7.343,-7.3441,-7.336,-7.3245,-7.3337,-7.3308,-7.3198,-7.3428,-7.3316,-7.334,-7.3479,-7.3714,-7.3737,-7.3758,-7.3979,-7.4031,-7.4074,0,0,0,0,0,0,-7.3303,-7.3268,-7.3196,-7.3397,-7.3418,-7.3394,-7.3507,-7.3417,-7.3472,-7.3448,-7.3345,-7.3346,-7.3523,-7.3517,-7.3393,-7.3714,-7.3551,-7.3579,-7.3711,-7.3759,-7.3798,-7.3794,-7.3194,0,0,0,0,0,-7.3378,-7.3471,-7.3435,-7.3616,-7.363,-7.3568,-7.3613,-7.3548,-7.3566,-7.3574,-7.3556,-7.3578,-7.3654,-7.3707,-7.3775,-7.3996,-7.3991,-7.4103,-7.4143,-7.4175,-7.4199,-7.4313,-7.4362,-7.3842,-7.3842,-7.3841,0,0,-7.3533,-7.3525,-7.359,-7.3662,-7.3671,-7.3768,-7.3576,-7.3688,-7.3759,-7.3591,-7.374,-7.3729,-7.3746,-7.3937,-7.402,-7.3937,-7.4343,-7.4203,-7.4229,-7.4236,-7.4341,-7.439,-7.4434,-7.3857,-7.3854,-7.3852,0,0,-7.3863,-7.3869,-7.4018,-7.4031,-7.4047,-7.4004,-7.4041,-7.403,-7.4016,-7.4165,-7.404,-7.4123,-7.4258,-7.4274,-7.4301,-7.4639,-7.4539,-7.4665,-7.4868,-7.4981,-7.5021,-7.5057,-7.5175,-7.5219,-7.469,-7.4691,-7.4691,0,-7.4053,-7.4195,-7.4107,-7.4226,-7.4261,-7.4114,-7.4264,-7.4281,-7.432,-7.4346,-7.4254,-7.4419,-7.4421,-7.4612,-7.4695,-7.4722,-7.4759,-7.4663,-7.5023,-7.5058,-7.509,-7.5201,-7.5246,-7.4705,-7.4704,-7.4702,-7.4701,0,-7.4426,-7.4527,-7.4646,-7.4686,-7.4735,-7.487,-7.4801,-7.4861,-7.4793,-7.476,-7.4913,-7.491,-7.4974,-7.5015,-7.4951,-7.5198,-7.5146,-7.5041,-7.4874,-7.5156,-7.5258,-7.53,-7.4727,-7.4721,-7.4717,-7.4713,0,0,-7.4901,-7.4891,-7.4936,-7.4951,-7.4959,-7.5034,-7.5163,-7.5225,-7.5277,-7.531,-7.5413,-7.5531,-7.5433,-7.5463,-7.5399,-7.5499,-7.5763,-7.5379,-7.5378,-7.5448,-7.6033,-7.611,-7.616,-7.5699,-7.5706,-7.5713,-7.603,0,-7.5221,-7.5438,-7.5363,-7.5584,-7.5674,-7.5537,-7.5648,-7.5665,-7.5638,-7.5711,-7.5681,-7.5765,-7.5631,-7.5648,-7.574,-7.5712,-7.5879,-7.5688,-7.5792,-7.5796,-7.5788,-7.6214,-7.6296,-7.6595,-7.607,-7.6077,-7.6082,0,-7.5623,-7.5671,-7.5901,-7.5892,-7.5927,-7.6028,-7.6078,-7.6151,-7.6167,-7.614,-7.6175,-7.609,-7.6213,-7.6051,-7.6219,-7.6091,-7.613,-7.6123,-7.6132,-7.6135,-7.5953,-7.6226,-7.6689,-7.6733,-7.6144,-7.6139,-7.6135,0,-7.5942,-7.6064,-7.6217,-7.6235,-7.6229,-7.6303,-7.6304,-7.6311,-7.6353,-7.6398,-7.6424,-7.6484,-7.6516,-7.6564,-7.6497,-7.6385,-7.6675,-7.6506,-7.6654,-7.6656,-7.6718,-7.6714,-7.719,-7.675,-7.6749,-7.6749,-7.6748,0,-7.6305,-7.6451,-7.6359,-7.6453,-7.6612,-7.6524,-7.6684,-7.6669,-7.6677,-7.6765,-7.6651,-7.6736,-7.6644,-7.6721,-7.667,-7.6816,-7.6832,-7.6813,-7.6797,-7.6821,-7.6823,-7.6841,-7.6817,-7.676,-7.6758,-7.6756,-7.6753,0,-7.6686,-7.6632,-7.6788,-7.677,-7.6769,-7.6887,-7.687,-7.6956,-7.6922,-7.7035,-7.7056,-7.7003,-7.7087,-7.7026,-7.711,-7.7075,-7.7266,-7.7223,-7.7261,-7.7247,-7.7397,-7.7383,-7.7899,-7.7961,-7.7485,-7.749,-7.7494,0,-7.6919,-7.7028,-7.7022,-7.7072,-7.708,-7.7164,-7.7206,-7.7125,-7.7174,-7.72,-7.7283,-7.7357,-7.7411,-7.7552,-7.7521,-7.7584,-7.7539,-7.7716,-7.7547,-7.7568,-7.7537,-7.753,-7.7539,-7.7748,-7.7754,-7.7759,-7.7762,0,-7.7338,-7.7306,-7.7371,-7.7428,-7.7482,-7.7523,-7.7554,-7.7603,-7.752,-7.7581,-7.7665,-7.7708,-7.7793,-7.7868,-7.792,-7.792,-7.7828,-7.7817,-7.7853,-7.7877,-7.7892,-7.7882,-7.7349,-7.7804,-7.78,-7.7797,-7.7794,-7.7793,-7.7649,-7.7738,-7.7748,-7.7824,-7.784,-7.7872,-7.7951,-7.7927,-7.7996,-7.8058,-7.8007,-7.8107,-7.812,-7.818,-7.8192,-7.8269,-7.8196,-7.8251,-7.8264,-7.8277,-7.8297,-7.7884,-7.8279,-7.8278,-7.8276,-7.8275,-7.8275,0,-7.8058,-7.8058,-7.813,-7.8177,-7.8237,-7.8147,-7.8177,-7.8233,-7.8323,-7.8343,-7.84,-7.8496,-7.8568,-7.8543,-7.8607,-7.8673,-7.8633,-7.8693,-7.8685,-7.8686,-7.836,-7.832,-7.8724,-7.8724,-7.8724,-7.8724,-7.8724,-7.8724,-7.8278,-7.8423,-7.8392,-7.8544,-7.8542,-7.8639,-7.8664,-7.8693,-7.8708,-7.8821,-7.888,-7.8864,-7.8865,-7.8928,-7.899,-7.8981,-7.9008,-7.9083,-7.9058,-7.8753,-7.8709,-7.8666,-7.8628,-7.9091,-7.9091,-7.9376,-7.9379,-7.9381]},{"header":{"parameterUnit":"m.s-1","parameterCategory":1,"la1":30.2991,"la2":30.254,"lo1":-89.0895,"lo2":-89.0444,"dy":0.0017,"dx":0.0017,"nx":28,"ny":28,"refTime":"2025-11-29T09:00:00:Z","depth":0,"parameterNumber":3,"parameterNumberName":"V-component_of_WINDS"},"data":[0,0,0,0,0,0,0,0,0,0,0,0,0,0,0,0,0,0,0,0,0,0,0,0,0,0,0,0,0,0,0,0,0,0,0,0,0,0,0,0,0,0,0,0,0,0,0,0,0,0,0,0,0,0,0,0,0,0,-0.4693,-0.4694,0,-0.4772,-0.4773,-0.4774,-0.485,-0.4851,-0.4852,-0.4853,-0.4933,-0.4935,-0.4936,0,0,0,0,0,0,0,0,0,0,0,0,0,-0.4607,-0.4608,-0.4693,-0.4694,-0.4695,-0.4772,-0.4773,-0.4774,-0.485,-0.4851,-0.4852,-0.4853,-0.4933,-0.4935,-0.4936,0,0,0,0,0,0,0,0,0,0,0,0,0,-0.4661,-0.4609,-0.4693,-0.4742,-0.4748,-0.4772,-0.4773,-0.4775,-0.485,-0.4851,-0.4853,-0.4854,-0.4933,-0.4934,-0.4936,-0.4918,0,0,-0.4942,-0.4943,0,0,0,0,0,0,0,0,-0.4658,-0.4664,-0.4734,-0.4739,-0.4745,-0.4803,-0.4772,-0.4823,-0.4849,-0.4811,-0.4853,-0.4855,-0.4889,-0.4894,-0.4906,-0.4922,-0.4925,-0.4942,-0.4943,-0.4944,-0.4944,0,0,0,0,0,0,0,-0.4654,-0.4661,-0.4725,-0.4735,-0.4742,-0.476,-0.4769,-0.4782,-0.4841,-0.4814,-0.482,-0.4828,-0.4892,-0.4904,-0.4908,-0.4927,-0.4942,-0.4944,-0.4945,-0.4945,-0.493,-0.4928,0,0,0,0,0,0,-0.4643,-0.4658,-0.4722,-0.4727,-0.4704,-0.476,-0.4771,-0.4783,-0.4841,-0.4851,-0.4827,-0.4832,-0.49,-0.4906,-0.4911,-0.4893,-0.4944,-0.4946,-0.4947,-0.4931,-0.493,-0.4928,0,0,0,0,0,0,-0.4641,-0.4648,-0.4719,-0.4694,-0.4704,-0.476,-0.4773,-0.4784,-0.4796,-0.485,-0.4861,-0.4828,-0.4901,-0.4909,-0.4916,-0.4897,-0.4946,-0.4948,-0.4933,-0.4931,-0.4929,-0.4855,0,0,0,0,0,0,-0.4638,-0.4647,-0.4641,-0.4693,-0.4705,-0.4722,-0.4772,-0.4784,-0.4799,-0.4805,-0.4855,-0.4864,-0.4903,-0.4912,-0.4917,-0.49,-0.495,-0.4935,-0.4932,-0.4929,-0.486,-0.4851,-0.4843,0,0,0,0,0,-0.4635,-0.4617,-0.464,-0.4648,-0.4699,-0.472,-0.4727,-0.4773,-0.4797,-0.4791,-0.4826,-0.4863,-0.4898,-0.4912,-0.4919,-0.4902,-0.4937,-0.4933,-0.493,-0.4863,-0.4853,-0.4844,0,0,0,0,0,0,-0.4562,-0.4625,-0.4651,-0.465,-0.4679,-0.4733,-0.4727,-0.476,-0.4783,-0.4788,-0.4844,-0.4854,-0.4854,-0.4879,-0.4894,-0.4886,-0.4922,-0.492,-0.487,-0.486,-0.4852,-0.4845,-0.4951,0,0,0,0,0,-0.4545,-0.4558,-0.4613,-0.4607,-0.462,-0.4671,-0.4682,-0.4714,-0.4746,-0.4759,-0.4795,-0.4824,-0.4842,-0.4853,-0.4872,-0.4864,-0.4875,-0.4855,-0.4847,-0.484,-0.4837,-0.4833,-0.4824,-0.4917,-0.4917,-0.4917,0,0,-0.4512,-0.4548,-0.4553,-0.4593,-0.4619,-0.463,-0.4681,-0.469,-0.4699,-0.4761,-0.4769,-0.4796,-0.4832,-0.4831,-0.4832,-0.4852,-0.4814,-0.4836,-0.483,-0.4831,-0.4828,-0.4819,-0.4812,-0.4914,-0.4915,-0.4915,0,0,-0.4456,-0.4486,-0.4483,-0.4508,-0.4547,-0.4581,-0.458,-0.4629,-0.4649,-0.4658,-0.4704,-0.4715,-0.4745,-0.4768,-0.4784,-0.4736,-0.477,-0.4741,-0.4698,-0.4693,-0.4685,-0.4679,-0.466,-0.4653,-0.4738,-0.4738,-0.4738,0,-0.441,-0.4428,-0.4477,-0.4484,-0.4499,-0.4556,-0.4553,-0.4575,-0.4618,-0.4627,-0.4648,-0.4686,-0.4715,-0.4719,-0.4707,-0.4719,-0.4718,-0.4735,-0.4683,-0.4677,-0.4672,-0.4654,-0.4647,-0.4734,-0.4734,-0.4735,-0.4735,0,-0.4368,-0.438,-0.4373,-0.4413,-0.4428,-0.4429,-0.4478,-0.4487,-0.4518,-0.4549,-0.4557,-0.4593,-0.462,-0.4624,-0.4655,-0.4632,-0.4642,-0.4672,-0.4709,-0.4658,-0.4642,-0.4636,-0.4728,-0.473,-0.4731,-0.4732,0,0,-0.4269,-0.4334,-0.4331,-0.4349,-0.4395,-0.4405,-0.4409,-0.4435,-0.4441,-0.4469,-0.4473,-0.4496,-0.4524,-0.4542,-0.4575,-0.4571,-0.4528,-0.4602,-0.4604,-0.4585,-0.4503,-0.4479,-0.4471,-0.4552,-0.4551,-0.455,-0.45,0,-0.4219,-0.4229,-0.4273,-0.4269,-0.428,-0.4333,-0.4336,-0.4365,-0.4394,-0.4407,-0.444,-0.4454,-0.4491,-0.4501,-0.45,-0.4534,-0.4512,-0.4538,-0.4554,-0.4554,-0.4542,-0.4463,-0.4438,-0.4389,-0.4494,-0.4493,-0.4493,0,-0.4163,-0.4186,-0.4184,-0.4229,-0.4235,-0.4237,-0.4263,-0.4275,-0.4308,-0.433,-0.4349,-0.4387,-0.4393,-0.4428,-0.4436,-0.4453,-0.4462,-0.448,-0.4479,-0.4481,-0.4519,-0.4461,-0.4375,-0.4366,-0.4484,-0.4484,-0.4485,0,-0.4088,-0.4119,-0.4121,-0.4135,-0.4188,-0.4188,-0.421,-0.4244,-0.4257,-0.428,-0.4288,-0.4312,-0.4325,-0.4342,-0.4385,-0.4407,-0.4388,-0.4427,-0.4405,-0.4403,-0.4397,-0.4397,-0.4309,-0.4406,-0.4406,-0.4406,-0.4406,0,-0.4028,-0.4023,-0.4088,-0.4089,-0.4085,-0.4135,-0.413,-0.4158,-0.4188,-0.4194,-0.4243,-0.4248,-0.4305,-0.4316,-0.435,-0.435,-0.4356,-0.4373,-0.4381,-0.4368,-0.4365,-0.4373,-0.4377,-0.4404,-0.4404,-0.4405,-0.4405,0,-0.3943,-0.3986,-0.3991,-0.4041,-0.4053,-0.4048,-0.409,-0.4092,-0.4124,-0.4132,-0.4137,-0.4187,-0.4203,-0.4247,-0.4275,-0.4297,-0.4288,-0.4305,-0.4276,-0.4281,-0.4256,-0.4257,-0.4169,-0.4159,-0.4263,-0.4262,-0.4261,0,-0.3901,-0.3898,-0.3947,-0.3955,-0.3975,-0.3987,-0.3999,-0.4049,-0.406,-0.4096,-0.4094,-0.4114,-0.4132,-0.4155,-0.4193,-0.4214,-0.4231,-0.4199,-0.4235,-0.422,-0.4229,-0.4227,-0.4227,-0.4191,-0.4189,-0.4188,-0.4187,0,-0.382,-0.3841,-0.3858,-0.3881,-0.3894,-0.3915,-0.3939,-0.3942,-0.3997,-0.4007,-0.4024,-0.4038,-0.4065,-0.4083,-0.411,-0.4133,-0.4168,-0.4176,-0.4171,-0.4156,-0.4139,-0.4146,-0.4253,-0.4177,-0.4178,-0.4179,-0.418,-0.418,-0.3754,-0.3754,-0.3788,-0.3804,-0.3827,-0.3847,-0.3851,-0.3883,-0.3898,-0.3924,-0.3952,-0.3965,-0.3997,-0.4037,-0.4057,-0.4067,-0.4086,-0.408,-0.4078,-0.4076,-0.4068,-0.4138,-0.4072,-0.4073,-0.4073,-0.4073,-0.4074,0,-0.3675,-0.3699,-0.3713,-0.3744,-0.3756,-0.3789,-0.3817,-0.3824,-0.3835,-0.3862,-0.3879,-0.3897,-0.3914,-0.3954,-0.3975,-0.3976,-0.3993,-0.398,-0.3979,-0.3984,-0.4051,-0.4052,-0.3966,-0.3966,-0.3966,-0.3966,-0.3966,-0.3966,-0.3635,-0.3635,-0.366,-0.3672,-0.3697,-0.3709,-0.3722,-0.3741,-0.3762,-0.378,-0.3795,-0.3821,-0.3852,-0.3876,-0.3894,-0.3905,-0.391,-0.3891,-0.3907,-0.3969,-0.3979,-0.3989,-0.399,-0.3892,-0.3892,-0.3839,-0.3838,-0.3838]}]]